| time (UTC) | temp F | wind direction | speed MPH | gust MPH | rain 1hr in | rain 24hr in | rain mn in | humidity % | barometer mb |
| 20260504011735 | 64 | 242 | 9.0 | 12.0 | 0.00 | 0.00 | 0.00 | 46 | 989.4 |
| 20260504011313 | 64 | 250 | 14.0 | 13.0 | 0.00 | 0.00 | 0.00 | 46 | 989.5 |
| 20260504010314 | 65 | 240 | 10.0 | 10.0 | 0.00 | 0.00 | 0.00 | 45 | 989.6 |
| 20260504010234 | 65 | 243 | 15.0 | 15.0 | 0.00 | 0.00 | 0.00 | 45 | 989.7 |
| 20260504005313 | 65 | 261 | 16.0 | 15.0 | 0.00 | 0.00 | 0.00 | 45 | 989.8 |
| 20260504004735 | 65 | 247 | 17.0 | 20.0 | 0.00 | 0.00 | 0.00 | 44 | 990.0 |
| 20260504004313 | 65 | 250 | 16.0 | 18.0 | 0.00 | 0.00 | 0.00 | 44 | 990.1 |
| 20260504003313 | 66 | 250 | 16.0 | 18.0 | 0.00 | 0.00 | 0.00 | 43 | 990.0 |
| 20260504003235 | 66 | 252 | 17.0 | 17.0 | 0.00 | 0.00 | 0.00 | 43 | 990.0 |
| 20260504002315 | 66 | 251 | 15.0 | 17.0 | 0.00 | 0.00 | 0.00 | 42 | 990.1 |
| 20260504001735 | 67 | 252 | 18.0 | 20.0 | 0.00 | 0.00 | 0.00 | 41 | 990.2 |
| 20260504001314 | 67 | 253 | 18.0 | 18.0 | 0.00 | 0.00 | 0.00 | 41 | 990.3 |
| 20260504000314 | 67 | 247 | 22.0 | 21.0 | 0.00 | 0.00 | 0.00 | 41 | 990.6 |
| 20260504000234 | 67 | 248 | 22.0 | 22.0 | 0.00 | 0.00 | 0.00 | 41 | 990.6 |
| 20260503235314 | 67 | 248 | 23.0 | 26.0 | 0.00 | 0.00 | 0.00 | 40 | 990.7 |
| 20260503234734 | 67 | 251 | 22.0 | 26.0 | 0.00 | 0.00 | 0.00 | 40 | 990.8 |
| 20260503234314 | 67 | 247 | 26.0 | 25.0 | 0.00 | 0.00 | 0.00 | 40 | 990.9 |
| 20260503233314 | 67 | 254 | 26.0 | 26.0 | 0.00 | 0.00 | 0.00 | 41 | 991.1 |
| 20260503233234 | 67 | 251 | 24.0 | 29.0 | 0.00 | 0.00 | 0.00 | 41 | 991.0 |
| 20260503232314 | 67 | 257 | 25.0 | 26.0 | 0.00 | 0.00 | 0.00 | 41 | 991.3 |
| 20260503231736 | 68 | 252 | 21.0 | 28.0 | 0.00 | 0.00 | 0.00 | 40 | 991.6 |
| 20260503231313 | 68 | 258 | 17.0 | 22.0 | 0.00 | 0.00 | 0.00 | 39 | 991.7 |
| 20260503230313 | 69 | 263 | 21.0 | 25.0 | 0.00 | 0.00 | 0.00 | 37 | 992.0 |
| 20260503230235 | 69 | 262 | 18.0 | 21.0 | 0.00 | 0.00 | 0.00 | 37 | 992.0 |
| 20260503225313 | 68 | 259 | 18.0 | 24.0 | 0.00 | 0.00 | 0.00 | 37 | 992.1 |
| 20260503224735 | 68 | 255 | 20.0 | 23.0 | 0.00 | 0.00 | 0.00 | 37 | 991.9 |
| 20260503224314 | 68 | 262 | 12.0 | 24.0 | 0.00 | 0.00 | 0.00 | 37 | 992.5 |
| 20260503223314 | 69 | 275 | 23.0 | 24.0 | 0.00 | 0.00 | 0.00 | 36 | 992.6 |
| 20260503223234 | 69 | 277 | 28.0 | 40.0 | 0.00 | 0.00 | 0.00 | 35 | 992.7 |
| 20260503222315 | 71 | 263 | 21.0 | 24.0 | 0.00 | 0.00 | 0.00 | 27 | 992.6 |
| 20260503221735 | 71 | 251 | 30.0 | 33.0 | 0.00 | 0.00 | 0.00 | 27 | 992.3 |
| 20260503221314 | 71 | 253 | 32.0 | 32.0 | 0.00 | 0.00 | 0.00 | 27 | 992.2 |
| 20260503220314 | 71 | 247 | 33.0 | 36.0 | 0.00 | 0.00 | 0.00 | 26 | 992.2 |
| 20260503220234 | 71 | 249 | 29.0 | 36.0 | 0.00 | 0.00 | 0.00 | 26 | 992.2 |
| 20260503215314 | 72 | 251 | 29.0 | 30.0 | 0.00 | 0.00 | 0.00 | 26 | 992.5 |
| 20260503214734 | 72 | 253 | 35.0 | 38.0 | 0.00 | 0.00 | 0.00 | 27 | 992.4 |
| 20260503214314 | 72 | 248 | 38.0 | 43.0 | 0.00 | 0.00 | 0.00 | 27 | 992.5 |
| 20260503213314 | 71 | 237 | 38.0 | 40.0 | 0.00 | 0.00 | 0.00 | 28 | 992.5 |
| 20260503213236 | 71 | 249 | 31.0 | 38.0 | 0.00 | 0.00 | 0.00 | 28 | 992.6 |
| 20260503212314 | 71 | 249 | 29.0 | 30.0 | 0.00 | 0.00 | 0.00 | 29 | 992.9 |
| 20260503211735 | 71 | 243 | 29.0 | 36.0 | 0.00 | 0.00 | 0.00 | 30 | 992.9 |
| 20260503211313 | 71 | 236 | 29.0 | 33.0 | 0.00 | 0.00 | 0.00 | 31 | 992.9 |
| 20260503210313 | 71 | 241 | 22.0 | 25.0 | 0.00 | 0.00 | 0.00 | 30 | 993.1 |
| 20260503210235 | 71 | 242 | 28.0 | 28.0 | 0.00 | 0.00 | 0.00 | 30 | 993.1 |
| 20260503205313 | 72 | 223 | 28.0 | 30.0 | 0.00 | 0.00 | 0.00 | 31 | 993.4 |
| 20260503204736 | 72 | 251 | 24.0 | 35.0 | 0.00 | 0.00 | 0.00 | 30 | 993.6 |
| 20260503204315 | 73 | 240 | 25.0 | 29.0 | 0.00 | 0.00 | 0.00 | 29 | 993.6 |
| 20260503203314 | 74 | 240 | 24.0 | 26.0 | 0.00 | 0.00 | 0.00 | 28 | 994.0 |
| 20260503203234 | 74 | 235 | 25.0 | 31.0 | 0.00 | 0.00 | 0.00 | 28 | 994.1 |
| 20260503202314 | 72 | 261 | 25.0 | 33.0 | 0.00 | 0.00 | 0.00 | 28 | 994.4 |
| 20260503201734 | 73 | 251 | 24.0 | 30.0 | 0.00 | 0.00 | 0.00 | 28 | 994.8 |
| 20260503201314 | 73 | 242 | 24.0 | 31.0 | 0.00 | 0.00 | 0.00 | 30 | 995.0 |
| 20260503200314 | 73 | 235 | 20.0 | 26.0 | 0.00 | 0.00 | 0.00 | 31 | 995.4 |
| 20260503200234 | 73 | 238 | 22.0 | 23.0 | 0.00 | 0.00 | 0.00 | 30 | 995.5 |
| 20260503195314 | 72 | 234 | 23.0 | 30.0 | 0.00 | 0.00 | 0.00 | 32 | 995.6 |
| 20260503194735 | 72 | 230 | 23.0 | 29.0 | 0.00 | 0.00 | 0.00 | 32 | 996.0 |
| 20260503194314 | 72 | 228 | 23.0 | 26.0 | 0.00 | 0.00 | 0.00 | 31 | 996.2 |
| 20260503193314 | 71 | 221 | 16.0 | 23.0 | 0.00 | 0.00 | 0.00 | 34 | 996.5 |
| 20260503193234 | 70 | 230 | 18.0 | 22.0 | 0.00 | 0.00 | 0.00 | 33 | 996.5 |
| 20260503192314 | 70 | 234 | 18.0 | 24.0 | 0.00 | 0.00 | 0.00 | 34 | 996.8 |
| 20260503191738 | 70 | 247 | 21.0 | 26.0 | 0.00 | 0.00 | 0.00 | 33 | 997.1 |
| 20260503191314 | 70 | 248 | 24.0 | 33.0 | 0.00 | 0.00 | 0.00 | 33 | 997.2 |
| 20260503190313 | 69 | 232 | 29.0 | 36.0 | 0.00 | 0.00 | 0.00 | 33 | 997.5 |
| 20260503190235 | 69 | 243 | 28.0 | 33.0 | 0.00 | 0.00 | 0.00 | 34 | 997.5 |
| 20260503185314 | 69 | 239 | 23.0 | 29.0 | 0.00 | 0.00 | 0.00 | 34 | 997.7 |
| 20260503184735 | 69 | 245 | 24.0 | 23.0 | 0.00 | 0.00 | 0.00 | 33 | 997.9 |
| 20260503184315 | 69 | 236 | 21.0 | 25.0 | 0.00 | 0.00 | 0.00 | 34 | 998.0 |
| 20260503183313 | 69 | 232 | 22.0 | 26.0 | 0.00 | 0.00 | 0.00 | 34 | 998.3 |
| 20260503183235 | 69 | 230 | 21.0 | 24.0 | 0.00 | 0.00 | 0.00 | 34 | 998.3 |
| 20260503182313 | 70 | 235 | 25.0 | 25.0 | 0.00 | 0.00 | 0.00 | 33 | 998.5 |
| 20260503181736 | 71 | 225 | 15.0 | 18.0 | 0.00 | 0.00 | 0.00 | 33 | 998.7 |
| 20260503181313 | 71 | 243 | 28.0 | 31.0 | 0.00 | 0.00 | 0.00 | 34 | 998.9 |
| 20260503180315 | 70 | 224 | 18.0 | 26.0 | 0.00 | 0.00 | 0.00 | 34 | 999.1 |
| 20260503180235 | 70 | 233 | 17.0 | 26.0 | 0.00 | 0.00 | 0.00 | 33 | 999.2 |
| 20260503175314 | 69 | 235 | 17.0 | 20.0 | 0.00 | 0.00 | 0.00 | 34 | 999.4 |
| 20260503174734 | 70 | 245 | 20.0 | 25.0 | 0.00 | 0.00 | 0.00 | 34 | 999.6 |
| 20260503174314 | 70 | 236 | 23.0 | 28.0 | 0.00 | 0.00 | 0.00 | 35 | 999.7 |
| 20260503173313 | 69 | 240 | 18.0 | 20.0 | 0.00 | 0.00 | 0.00 | 34 | 1000.0 |
| 20260503173235 | 69 | 240 | 20.0 | 22.0 | 0.00 | 0.00 | 0.00 | 34 | 1000.1 |
| 20260503172314 | 68 | 246 | 18.0 | 23.0 | 0.00 | 0.00 | 0.00 | 33 | 1000.5 |
| 20260503171735 | 68 | 225 | 15.0 | 14.0 | 0.00 | 0.00 | 0.00 | 33 | 1000.8 |
| 20260503171315 | 68 | 237 | 15.0 | 23.0 | 0.00 | 0.00 | 0.00 | 33 | 1000.8 |
| 20260503170313 | 67 | 237 | 16.0 | 25.0 | 0.00 | 0.00 | 0.00 | 34 | 1001.3 |
| 20260503170235 | 67 | 244 | 14.0 | 15.0 | 0.00 | 0.00 | 0.00 | 33 | 1001.3 |
| 20260503150313 | 60 | 247 | 16.0 | 21.0 | 0.00 | 0.00 | 0.00 | 43 | 1003.7 |
| 20260503150235 | 60 | 246 | 17.0 | 18.0 | 0.00 | 0.00 | 0.00 | 43 | 1003.7 |
| 20260503140313 | 54 | 244 | 15.0 | 18.0 | 0.00 | 0.00 | 0.00 | 52 | 1005.1 |
| 20260503140235 | 54 | 240 | 14.0 | 17.0 | 0.00 | 0.00 | 0.00 | 52 | 1005.1 |
| 20260503131314 | 44 | 243 | 7.0 | 10.0 | 0.00 | 0.00 | 0.00 | 66 | 1005.7 |
| 20260503130314 | 42 | 243 | 9.0 | 13.0 | 0.00 | 0.00 | 0.00 | 67 | 1005.7 |
| 20260503130234 | 42 | 237 | 10.0 | 12.0 | 0.00 | 0.00 | 0.00 | 68 | 1005.8 |
| 20260503110313 | 31 | 273 | 3.0 | 3.0 | 0.00 | 0.00 | 0.00 | 74 | 1006.3 |
| 20260503110236 | 31 | 273 | 3.0 | 3.0 | 0.00 | 0.00 | 0.00 | 75 | 1006.3 |
| 20260503100236 | 31 | 292 | 5.0 | 5.0 | 0.00 | 0.00 | 0.00 | 76 | 1006.8 |
| 20260503090313 | 30 | 274 | 6.0 | 8.0 | 0.00 | 0.00 | 0.00 | 75 | 1006.7 |
| 20260503090236 | 31 | 276 | 6.0 | 7.0 | 0.00 | 0.00 | 0.00 | 75 | 1006.7 |
| 20260503081313 | 32 | 278 | 6.0 | 7.0 | 0.00 | 0.00 | 0.00 | 76 | 1006.6 |
| 20260503080315 | 32 | 275 | 6.0 | 8.0 | 0.00 | 0.00 | 0.00 | 76 | 1006.7 |
| 20260503080235 | 32 | 280 | 7.0 | 9.0 | 0.00 | 0.00 | 0.00 | 76 | 1006.7 |
| 20260503072314 | 33 | 281 | 6.0 | 7.0 | 0.00 | 0.00 | 0.00 | 74 | 1006.9 |
| 20260503071734 | 34 | 274 | 5.0 | 8.0 | 0.00 | 0.00 | 0.00 | 73 | 1006.8 |
| 20260503071314 | 34 | 273 | 6.0 | 7.0 | 0.00 | 0.00 | 0.00 | 73 | 1006.8 |
| 20260503070314 | 35 | 276 | 8.0 | 9.0 | 0.00 | 0.00 | 0.00 | 67 | 1006.7 |
| 20260503070236 | 36 | 278 | 7.0 | 9.0 | 0.00 | 0.00 | 0.00 | 67 | 1006.7 |
| 20260503060314 | 40 | 26 | 5.0 | 7.0 | 0.00 | 0.00 | 0.00 | 68 | 1006.6 |
| 20260503060236 | 39 | 30 | 6.0 | 6.0 | 0.00 | 0.00 | 0.00 | 69 | 1006.6 |
| 20260503054735 | 39 | 346 | 9.0 | 10.0 | 0.00 | 0.00 | 0.00 | 67 | 1006.9 |
| 20260503054314 | 39 | 336 | 8.0 | 13.0 | 0.00 | 0.00 | 0.00 | 67 | 1006.9 |
| 20260503053314 | 40 | 338 | 7.0 | 9.0 | 0.00 | 0.00 | 0.00 | 66 | 1006.8 |
| 20260503053234 | 40 | 333 | 8.0 | 9.0 | 0.00 | 0.00 | 0.00 | 66 | 1006.8 |
| 20260503052315 | 40 | 335 | 8.0 | 13.0 | 0.00 | 0.00 | 0.00 | 65 | 1006.7 |
| 20260503051735 | 41 | 331 | 9.0 | 13.0 | 0.00 | 0.00 | 0.00 | 64 | 1006.6 |
| 20260503051314 | 41 | 338 | 8.0 | 14.0 | 0.00 | 0.00 | 0.00 | 63 | 1006.7 |
| 20260503050314 | 42 | 337 | 7.0 | 6.0 | 0.00 | 0.00 | 0.00 | 62 | 1006.7 |
| 20260503050234 | 42 | 339 | 7.0 | 6.0 | 0.00 | 0.00 | 0.00 | 62 | 1006.7 |
| 20260503045314 | 43 | 311 | 13.0 | 17.0 | 0.00 | 0.00 | 0.00 | 62 | 1006.6 |
| 20260503044734 | 43 | 308 | 8.0 | 12.0 | 0.00 | 0.00 | 0.00 | 61 | 1006.5 |
| 20260503044314 | 44 | 320 | 9.0 | 14.0 | 0.00 | 0.00 | 0.00 | 61 | 1006.5 |
| 20260503043314 | 44 | 325 | 10.0 | 15.0 | 0.00 | 0.00 | 0.00 | 60 | 1006.5 |
| 20260503043236 | 44 | 316 | 10.0 | 14.0 | 0.00 | 0.00 | 0.00 | 60 | 1006.5 |
| 20260503042315 | 45 | 317 | 10.0 | 14.0 | 0.00 | 0.00 | 0.00 | 60 | 1006.4 |
| 20260503041734 | 45 | 306 | 10.0 | 13.0 | 0.00 | 0.00 | 0.00 | 61 | 1006.5 |
| 20260503041314 | 45 | 316 | 10.0 | 15.0 | 0.00 | 0.00 | 0.00 | 61 | 1006.5 |
| 20260503040314 | 45 | 307 | 9.0 | 13.0 | 0.00 | 0.00 | 0.00 | 61 | 1006.4 |
| 20260503040234 | 45 | 312 | 9.0 | 10.0 | 0.00 | 0.00 | 0.00 | 61 | 1006.4 |
| 20260503035314 | 45 | 312 | 8.0 | 13.0 | 0.00 | 0.00 | 0.00 | 62 | 1006.4 |
| 20260503034734 | 45 | 308 | 9.0 | 10.0 | 0.00 | 0.00 | 0.00 | 61 | 1006.4 |
| 20260503034313 | 45 | 313 | 7.0 | 9.0 | 0.00 | 0.00 | 0.00 | 61 | 1006.5 |
| 20260503033313 | 46 | 319 | 8.0 | 9.0 | 0.00 | 0.00 | 0.00 | 59 | 1006.4 |
| 20260503033235 | 46 | 320 | 9.0 | 12.0 | 0.00 | 0.00 | 0.00 | 59 | 1006.4 |
| 20260503032314 | 47 | 321 | 6.0 | 8.0 | 0.00 | 0.00 | 0.00 | 58 | 1006.4 |
| 20260503031734 | 48 | 332 | 7.0 | 12.0 | 0.00 | 0.00 | 0.00 | 58 | 1006.3 |
| 20260503031314 | 48 | 338 | 8.0 | 12.0 | 0.00 | 0.00 | 0.00 | 57 | 1006.3 |
| 20260503030314 | 49 | 322 | 12.0 | 15.0 | 0.00 | 0.00 | 0.00 | 56 | 1006.2 |
| 20260503030234 | 49 | 330 | 9.0 | 14.0 | 0.00 | 0.00 | 0.00 | 56 | 1006.2 |
| 20260503025314 | 50 | 325 | 10.0 | 13.0 | 0.00 | 0.00 | 0.00 | 56 | 1006.2 |
| 20260503024734 | 50 | 320 | 13.0 | 20.0 | 0.00 | 0.00 | 0.00 | 56 | 1006.1 |
| 20260503024314 | 51 | 316 | 13.0 | 17.0 | 0.00 | 0.00 | 0.00 | 56 | 1006.0 |
| 20260503023314 | 52 | 325 | 14.0 | 18.0 | 0.00 | 0.00 | 0.00 | 56 | 1005.9 |
| 20260503023236 | 52 | 326 | 13.0 | 20.0 | 0.00 | 0.00 | 0.00 | 56 | 1005.9 |
| 20260503022313 | 52 | 316 | 10.0 | 21.0 | 0.00 | 0.00 | 0.00 | 58 | 1005.7 |
| 20260503021735 | 53 | 321 | 12.0 | 17.0 | 0.00 | 0.00 | 0.00 | 58 | 1005.7 |
| 20260503021313 | 53 | 315 | 13.0 | 15.0 | 0.00 | 0.00 | 0.00 | 57 | 1005.6 |
| 20260503020313 | 54 | 323 | 10.0 | 13.0 | 0.00 | 0.00 | 0.00 | 57 | 1005.5 |
| 20260503020235 | 54 | 320 | 10.0 | 18.0 | 0.00 | 0.00 | 0.00 | 57 | 1005.5 |
| 20260503015313 | 55 | 317 | 10.0 | 14.0 | 0.00 | 0.00 | 0.00 | 56 | 1005.3 |
| 20260503014735 | 56 | 320 | 9.0 | 15.0 | 0.00 | 0.00 | 0.00 | 55 | 1005.3 |
| 20260503014315 | 57 | 321 | 9.0 | 15.0 | 0.00 | 0.00 | 0.00 | 53 | 1005.2 |
| 20260503013315 | 58 | 321 | 13.0 | 18.0 | 0.00 | 0.00 | 0.00 | 52 | 1005.0 |
| 20260503013234 | 58 | 320 | 13.0 | 18.0 | 0.00 | 0.00 | 0.00 | 52 | 1005.0 |
| 20260503012314 | 59 | 326 | 13.0 | 18.0 | 0.00 | 0.00 | 0.00 | 51 | 1004.9 |